Weather History for Vinton, IA

Change the Weather History Date:

Saturday, February 15, 2014

  Actual Average Record
Temperature  
Mean Temperature 6 °F -  
Max Temperature 19 °F 32 °F 62 °F (1954)
Min Temperature -7 °F 15 °F -16 °F (1963)
Degree Days  
Heating Degree Days 59    
Moisture  
Dew Point 4 °F    
Average Humidity 80    
Maximum Humidity 83    
Minimum Humidity 66    
Precipitation  
Precipitation 0.00 in - - ()
Sea Level Pressure  
Sea Level Pressure 29.97 in    
Wind  
Wind Speed 5 mph (South)    
Max Wind Speed 17 mph    
Max Gust Speed 22 mph    
Visibility 9 miles    
Events Snow    
Averages and records for this station are not official NWS values.
T = Trace of Precipitation, MM = Missing Value Source: NWS Daily Summary

Daily Weather History Graph

Daily Weather History Graph

Search for Another Location

Airport:

Trip Planner

Search our weather history database for the weather conditions in past years. The results will help you decide how hot, cold, wet, or windy it might be!

Date:

Astronomy

Feb. 15, 2014 Rise Set
Actual Time 7:04 AM CST 5:40 PM CST
Civil Twilight 6:35 AM CST 6:09 PM CST
Nautical Twilight 6:02 AM CST 6:42 PM CST
Astronomical Twilight 5:30 AM CST 7:14 PM CST
Moon 6:43 PM CST (2/15) 7:01 AM CST (2/15)
Length of Visible Light 11h 33m
Length of Day
10h 36m
Waxing Gibbous, 99% of the Moon is Illuminated
Feb 15
Waxing Gibbous
Feb 22
Last Quarter
Mar 1
New
Mar 8
First Quarter
Mar 16
Full

Hourly Weather History & Observations

Time (CST) Temp. Windchill Dew Point Humidity Pressure Visibility Wind Dir Wind Speed Gust Speed Precip Events Conditions
12:15 AM 0.5 °F -9.3 °F -3.6 °F 83% 30.06 in 10.0 mi NW 4.6 mph - N/A   Clear
12:35 AM 0.7 °F -7.1 °F -3.6 °F 82% 30.05 in 10.0 mi NNW 3.5 mph - N/A   Clear
12:55 AM 0.1 °F -7.7 °F -4.2 °F 82% 30.06 in 10.0 mi NNW 3.5 mph - N/A   Clear
1:15 AM -0.4 °F - -4.4 °F 83% 30.07 in 10.0 mi Calm Calm - N/A   Clear
1:35 AM 0.5 °F -7.3 °F -3.6 °F 83% 30.07 in 10.0 mi WNW 3.5 mph - N/A   Clear
1:55 AM -0.2 °F - -4.4 °F 83% 30.07 in 7.0 mi Calm Calm - N/A   Clear
2:15 AM 0.3 °F - -4.0 °F 82% 30.06 in 7.0 mi Calm Calm - N/A   Clear
2:35 AM -0.6 °F - -4.9 °F 82% 30.05 in 10.0 mi Calm Calm - N/A   Clear
2:55 AM -0.6 °F - -4.9 °F 82% 30.04 in 10.0 mi Calm Calm - N/A   Clear
3:15 AM -1.5 °F - -6.0 °F 81% 30.03 in 10.0 mi Calm Calm - N/A   Clear
3:35 AM -5.8 °F -14.5 °F -10.5 °F 80% 30.04 in 7.0 mi SW 3.5 mph - N/A   Clear
3:55 AM -3.1 °F - -7.6 °F 81% 30.03 in 10.0 mi Calm Calm - N/A   Clear
4:15 AM -3.1 °F - -7.8 °F 80% 30.03 in 10.0 mi Calm Calm - N/A   Clear
4:35 AM -5.8 °F - -11.2 °F 77% 30.04 in 10.0 mi Calm Calm - N/A   Clear
4:55 AM -7.6 °F - -13.0 °F 77% 30.05 in 10.0 mi Calm Calm - N/A   Clear
5:15 AM -4.0 °F - -9.0 °F 79% 30.04 in 10.0 mi Calm Calm - N/A   Clear
5:35 AM -4.4 °F - -9.4 °F 79% 30.04 in 10.0 mi Calm Calm - N/A   Clear
5:55 AM -3.1 °F -11.4 °F -8.0 °F 80% 30.04 in 10.0 mi SSE 3.5 mph - N/A   Clear
6:15 AM -3.1 °F -11.4 °F -8.1 °F 79% 30.04 in 10.0 mi South 3.5 mph - N/A   Clear
6:35 AM -3.1 °F - -8.1 °F 79% 30.04 in 10.0 mi Calm Calm - N/A   Clear
6:55 AM -3.1 °F - -8.1 °F 79% 30.04 in 10.0 mi Calm Calm - N/A   Clear
7:15 AM -3.1 °F -13.5 °F -8.0 °F 80% 30.02 in 10.0 mi SSE 4.6 mph - N/A   Clear
7:35 AM -2.0 °F -13.9 °F -6.9 °F 80% 30.01 in 10.0 mi SSE 5.8 mph - N/A   Clear
7:55 AM -0.6 °F -10.6 °F -5.4 °F 80% 30.00 in 10.0 mi SE 4.6 mph - N/A   Clear
8:15 AM 0.5 °F -9.3 °F -4.2 °F 81% 30.00 in 10.0 mi SE 4.6 mph - N/A   Clear
8:35 AM 1.9 °F -7.6 °F -2.9 °F 80% 29.99 in 10.0 mi SE 4.6 mph - N/A   Clear
8:55 AM 3.6 °F -3.8 °F -1.1 °F 81% 30.01 in 10.0 mi SSE 3.5 mph - N/A   Clear
9:15 AM 6.8 °F -4.8 °F 2.3 °F 82% 30.01 in 10.0 mi SSE 6.9 mph - N/A   Clear
9:35 AM 9.5 °F -1.5 °F 4.8 °F 81% 30.02 in 10.0 mi SSW 6.9 mph - N/A   Clear
9:55 AM 9.5 °F -4.4 °F 4.1 °F 79% 30.02 in 10.0 mi South 10.4 mph - N/A   Clear
10:15 AM 9.5 °F -3.5 °F 3.7 °F 77% 30.01 in 10.0 mi South 9.2 mph - N/A   Clear
10:35 AM 9.5 °F -0.3 °F 2.8 °F 74% 30.02 in 10.0 mi South 5.8 mph - N/A   Clear
10:55 AM 12.0 °F 0.5 °F 4.1 °F 71% 30.02 in 10.0 mi South 8.1 mph - N/A   Clear
11:15 AM 12.0 °F -0.4 °F 3.7 °F 69% 30.00 in 10.0 mi South 9.2 mph - N/A   Clear
11:35 AM 12.7 °F -2.5 °F 4.1 °F 68% 29.97 in 10.0 mi SSE 13.8 mph - N/A   Clear
11:55 AM 14.5 °F -0.7 °F 5.9 °F 69% 29.95 in 10.0 mi SSE 15.0 mph 21.9 mph N/A   Clear
12:15 PM 14.5 °F 0.5 °F 5.2 °F 66% 29.95 in 10.0 mi South 12.7 mph 18.4 mph N/A   Clear
12:35 PM 14.5 °F 2.7 °F 5.7 °F 68% 29.95 in 7.0 mi South 9.2 mph - N/A Snow Light Snow
12:55 PM 14.5 °F 0.5 °F 8.4 °F 77% 29.94 in 1.0 mi South 12.7 mph 16.1 mph N/A Snow Light Snow
1:15 PM 14.5 °F 0.5 °F 9.5 °F 80% 29.91 in 0.5 mi SSE 12.7 mph - N/A Snow Light Snow
1:35 PM 14.5 °F 1.9 °F 9.9 °F 82% 29.90 in 0.5 mi SSE 10.4 mph - N/A Snow Snow
1:55 PM 14.5 °F 0.5 °F 10.2 °F 83% 29.90 in 0.5 mi South 12.7 mph - N/A Snow Snow
2:15 PM 15.8 °F 2.7 °F 11.1 °F 82% 29.91 in 0.5 mi SSE 11.5 mph - N/A Snow Snow
2:35 PM 15.3 °F 4.4 °F 10.8 °F 82% 29.90 in 0.2 mi SSE 8.1 mph - N/A Snow Snow
2:55 PM 15.8 °F 3.4 °F 11.3 °F 82% 29.89 in 0.5 mi SSE 10.4 mph - N/A Snow Snow
3:15 PM 15.6 °F 0.1 °F 11.1 °F 82% 29.86 in 0.8 mi SSE 16.1 mph - N/A Snow Light Snow
3:35 PM 15.8 °F -0.2 °F 11.3 °F 82% 29.85 in 2.5 mi SSE 17.3 mph - N/A Snow Light Snow
3:55 PM 17.1 °F 2.5 °F 12.2 °F 81% 29.85 in 4.0 mi SSE 15.0 mph - N/A Snow Light Snow
4:15 PM 17.1 °F 3.6 °F 11.8 °F 80% 29.86 in 10.0 mi South 12.7 mph - N/A   Overcast
4:35 PM 17.1 °F 4.3 °F 12.2 °F 81% 29.87 in 10.0 mi South 11.5 mph - N/A   Overcast
4:55 PM 17.1 °F 3.6 °F 12.2 °F 81% 29.86 in 10.0 mi South 12.7 mph 19.6 mph N/A   Overcast
5:15 PM 17.1 °F 3.6 °F 12.2 °F 81% 29.86 in 10.0 mi SSE 12.7 mph 17.3 mph N/A   Overcast
5:35 PM 17.1 °F 5.8 °F 12.2 °F 81% 29.87 in 10.0 mi South 9.2 mph - N/A   Overcast
5:55 PM 17.1 °F 5.0 °F 12.6 °F 82% 29.88 in 10.0 mi South 10.4 mph - N/A   Overcast
6:15 PM 17.1 °F 5.0 °F 12.4 °F 82% 29.88 in 10.0 mi South 10.4 mph - N/A   Overcast
6:35 PM 17.1 °F 6.6 °F 12.4 °F 82% 29.88 in 10.0 mi South 8.1 mph - N/A   Overcast
6:55 PM 17.4 °F 7.1 °F 12.7 °F 82% 29.89 in 10.0 mi South 8.1 mph - N/A   Overcast
7:15 PM 17.1 °F 4.3 °F 12.2 °F 81% 29.89 in 10.0 mi South 11.5 mph - N/A   Mostly Cloudy
7:35 PM 17.1 °F 5.8 °F 12.4 °F 82% 29.90 in 7.0 mi South 9.2 mph - N/A Snow Light Snow
7:55 PM 17.2 °F 7.8 °F 12.4 °F 81% 29.91 in 10.0 mi South 6.9 mph - N/A   Overcast
8:15 PM 17.2 °F 6.8 °F 12.6 °F 82% 29.90 in 10.0 mi South 8.1 mph - N/A   Overcast
8:35 PM 17.4 °F 9.1 °F 12.9 °F 83% 29.91 in 10.0 mi South 5.8 mph - N/A   Mostly Cloudy
8:55 PM 17.6 °F 9.3 °F 13.1 °F 83% 29.91 in 10.0 mi South 5.8 mph - N/A   Mostly Cloudy
9:15 PM 18.1 °F 12.9 °F 13.5 °F 82% 29.93 in 10.0 mi SSW 3.5 mph - N/A   Overcast
9:35 PM 18.5 °F 13.3 °F 13.8 °F 82% 29.93 in 10.0 mi SSW 3.5 mph - N/A   Overcast
9:55 PM 19.2 °F - 14.5 °F 82% 29.94 in 10.0 mi Calm Calm - N/A   Overcast
10:15 PM 19.2 °F - 14.5 °F 82% 29.94 in 10.0 mi Calm Calm - N/A   Overcast
10:35 PM 19.4 °F - 14.9 °F 83% 29.95 in 10.0 mi Calm Calm - N/A   Overcast
10:55 PM 19.4 °F 14.3 °F 14.9 °F 83% 29.96 in 10.0 mi WNW 3.5 mph - N/A   Overcast
11:15 PM 19.4 °F 12.8 °F 14.9 °F 83% 29.95 in 10.0 mi NNW 4.6 mph - N/A   Overcast
11:35 PM 19.4 °F 11.5 °F 14.9 °F 83% 29.96 in 10.0 mi NNW 5.8 mph - N/A   Overcast
11:55 PM 19.4 °F 8.6 °F 14.9 °F 83% 29.98 in 10.0 mi NW 9.2 mph - N/A   Overcast